Tracking 29892 objects as of 21-Nov-2024
HD Live streaming from Space Station
objects crossing your sky now

IUS R/B(1)

Track IUS R/B(1) now!


NORAD ID: 26882
Int'l Code: 2001-033C
Perigee: 288.2 km
Apogee: 32,983.2 km
Inclination: 27.9 °
Period: 578.8 minutes
Semi major axis: 23006 km
RCS: Unknown
Launch date: August 6, 2001
Source: United States (US)
Launch site: AIR FORCE EASTERN TEST RANGE (AFETR)

Note: This is a ROCKET BODY
Your satellite tracking list
Your tracking list is empty




NASA's NSSDC Master Catalog

Two Line Element Set (TLE):
1 26882U 01033C   24325.07678671  .00002692  00000-0  11845-2 0  9991
2 26882  27.8699 237.2401 7105547 253.9052  23.1861  2.48783500 48193
Source of the keplerian elements: AFSPC